Weather History for KDED - November, 2012

Change the Weather History Date:

Wednesday, November 28, 2012

  Actual Average Record
Temperature  
Mean Temperature 58 °F -  
Max Temperature 62 °F 77 °F 62 °F (2013)
Min Temperature 53 °F 53 °F 35 °F (2013)
Degree Days  
Heating Degree Days 8    
Growing Degree Days 8 (Base 50)    
Moisture  
Dew Point 55 °F    
Average Humidity 89    
Maximum Humidity 100    
Minimum Humidity 77    
Precipitation  
Precipitation 0.00 in - - ()
Sea Level Pressure  
Sea Level Pressure 30.24 in    
Wind  
Wind Speed 4 mph ()    
Max Wind Speed 13 mph    
Max Gust Speed 17 mph    
Visibility 6.4 miles    
Events      
Averages and records for this station are not official NWS values.
T = Trace of Precipitation, MM = Missing Value Source: Averaged Metar Reports

Daily Weather History Graph

Daily Weather History Graph

Search for Another Location

Airport or City:

Trip Planner

Search our weather history database for the weather conditions in past years. The results will help you decide how hot, cold, wet, or windy it might be!

Date:

Astronomy

Nov. 28, 2012 Rise Set
Actual Time 6:59 AM EST 5:27 PM EST
Civil Twilight 6:33 AM EST 5:52 PM EST
Nautical Twilight 6:04 AM EST 6:21 PM EST
Astronomical Twilight 5:35 AM EST 6:50 PM EST
Moon 5:41 PM EST (11/28) 6:55 AM EST (11/28)
Length of Visible Light 11h 18m
Length of Day
10h 27m
Full, 100% of the Moon is Illuminated
Nov 28
Full
Dec 6
Last Quarter
Dec 13
New
Dec 20
First Quarter
Dec 28
Full

Hourly Weather History & Observations

Time (EST) Temp. Dew Point Humidity Pressure Visibility Wind Dir Wind Speed Gust Speed Precip Events Conditions
12:15 AM 60.8 °F 57.2 °F 88% 30.15 in 8.0 mi Calm Calm - N/A   Partly Cloudy
12:35 AM 60.8 °F 57.2 °F 88% 30.15 in 7.0 mi NNW 4.6 mph - N/A   Scattered Clouds
12:55 AM 62.6 °F 59.0 °F 88% 30.15 in 8.0 mi Calm Calm - N/A   Scattered Clouds
1:15 AM 60.8 °F 57.2 °F 88% 30.15 in 7.0 mi Calm Calm - N/A   Scattered Clouds
1:35 AM 60.8 °F 59.0 °F 94% 30.16 in 7.0 mi Calm Calm - N/A   Scattered Clouds
1:55 AM 60.8 °F 57.2 °F 88% 30.16 in 6.0 mi Calm Calm - N/A   Mostly Cloudy
2:15 AM 60.8 °F 59.0 °F 94% 30.16 in 7.0 mi Calm Calm - N/A   Scattered Clouds
2:55 AM 60.8 °F 59.0 °F 94% 30.17 in 6.0 mi North 4.6 mph - N/A   Clear
3:15 AM 60.8 °F 57.2 °F 88% 30.16 in 7.0 mi Calm Calm - N/A   Clear
3:35 AM 60.8 °F 57.2 °F 88% 30.17 in 7.0 mi Calm Calm - N/A   Clear
3:55 AM 59.0 °F 57.2 °F 94% 30.16 in 6.0 mi Calm Calm - N/A   Clear
4:15 AM 57.2 °F 57.2 °F 100% 30.15 in 6.0 mi Calm Calm - N/A   Clear
4:35 AM 57.2 °F 55.4 °F 94% 30.15 in 7.0 mi Calm Calm - N/A   Clear
4:55 AM 57.2 °F 55.4 °F 94% 30.15 in 3.0 mi Calm Calm - N/A   Clear
5:15 AM 55.4 °F 53.6 °F 94% 30.16 in 5.0 mi Calm Calm - N/A   Clear
5:35 AM 55.4 °F 53.6 °F 94% 30.17 in 5.0 mi Calm Calm - N/A   Clear
5:55 AM 55.4 °F 53.6 °F 94% 30.18 in 4.0 mi NNW 4.6 mph - N/A   Clear
6:15 AM 57.2 °F 55.4 °F 94% 30.19 in 5.0 mi Calm Calm - N/A   Clear
6:55 AM 55.4 °F 55.4 °F 100% 30.20 in 5.0 mi Calm Calm - N/A   Clear
7:15 AM 55.4 °F 55.4 °F 100% 30.21 in 5.0 mi North 6.9 mph - N/A   Partly Cloudy
7:35 AM 57.2 °F 55.4 °F 94% 30.21 in 5.0 mi North 9.2 mph - N/A   Mostly Cloudy
7:55 AM 57.2 °F 55.4 °F 94% 30.22 in 4.0 mi North 9.2 mph - N/A   Overcast
8:15 AM 57.2 °F 57.2 °F 100% 30.23 in 5.0 mi North 9.2 mph - N/A   Overcast
8:35 AM 59.0 °F 57.2 °F 94% 30.24 in 7.0 mi North 9.2 mph - N/A   Overcast
8:55 AM 59.0 °F 57.2 °F 94% 30.25 in 7.0 mi North 8.1 mph - N/A   Overcast
9:15 AM 60.8 °F 57.2 °F 88% 30.27 in 9.0 mi North 6.9 mph - N/A   Overcast
9:35 AM 60.8 °F 57.2 °F 88% 30.28 in 9.0 mi North 8.1 mph - N/A   Overcast
9:55 AM 60.8 °F 57.2 °F 88% 30.28 in 10.0 mi NNE 12.7 mph 17.3 mph N/A   Overcast
10:15 AM 60.8 °F 55.4 °F 82% 30.28 in 8.0 mi NNE 10.4 mph - N/A   Overcast
10:35 AM 60.8 °F 57.2 °F 88% 30.28 in 9.0 mi NNE 8.1 mph - N/A   Overcast
10:55 AM 60.8 °F 55.4 °F 82% 30.29 in 10.0 mi NNE 10.4 mph - N/A   Overcast
11:15 AM 60.8 °F 55.4 °F 82% 30.29 in 9.0 mi North 10.4 mph - N/A   Overcast
11:35 AM 60.8 °F 55.4 °F 82% 30.29 in 8.0 mi North 9.2 mph - N/A   Overcast
11:55 AM 60.8 °F 55.4 °F 82% 30.28 in 8.0 mi North 10.4 mph - N/A   Overcast
12:15 PM 62.6 °F 55.4 °F 77% 30.28 in 8.0 mi North 10.4 mph - N/A   Mostly Cloudy
12:35 PM 62.6 °F 55.4 °F 77% 30.27 in 8.0 mi North 8.1 mph - N/A   Mostly Cloudy
12:55 PM 62.6 °F 55.4 °F 77% 30.26 in 8.0 mi North 12.7 mph - N/A   Overcast
1:15 PM 62.6 °F 55.4 °F 77% 30.26 in 9.0 mi North 11.5 mph - N/A   Overcast
1:35 PM 60.8 °F 55.4 °F 82% 30.26 in 7.0 mi North 12.7 mph - N/A   Overcast
1:55 PM 60.8 °F 55.4 °F 82% 30.26 in 7.0 mi North 11.5 mph - N/A   Overcast
2:15 PM 60.8 °F 55.4 °F 82% 30.25 in 7.0 mi North 10.4 mph - N/A   Overcast
2:35 PM 60.8 °F 55.4 °F 82% 30.26 in 6.0 mi North 10.4 mph - N/A   Overcast
2:55 PM 60.8 °F 55.4 °F 82% 30.26 in 6.0 mi North 9.2 mph - N/A   Overcast
3:15 PM 60.8 °F 55.4 °F 82% 30.26 in 7.0 mi North 11.5 mph - N/A   Overcast
3:55 PM 60.8 °F 55.4 °F 82% 30.26 in 8.0 mi North 10.4 mph 17.3 mph N/A   Mostly Cloudy
4:15 PM 60.8 °F 53.6 °F 77% 30.26 in 7.0 mi North 12.7 mph - N/A   Overcast
4:35 PM 59.0 °F 53.6 °F 82% 30.26 in 7.0 mi NNW 11.5 mph - N/A   Mostly Cloudy
4:55 PM 59.0 °F 53.6 °F 82% 30.26 in 6.0 mi NNW 10.4 mph - N/A   Mostly Cloudy
5:15 PM 57.2 °F 53.6 °F 88% 30.27 in 7.0 mi NNW 6.9 mph - N/A   Scattered Clouds
5:35 PM 57.2 °F 53.6 °F 88% 30.27 in 6.0 mi NNW 4.6 mph - N/A   Clear
5:55 PM 55.4 °F 53.6 °F 94% 30.27 in 5.0 mi Calm Calm - N/A   Clear
6:15 PM 55.4 °F 53.6 °F 94% 30.28 in 5.0 mi Calm Calm - N/A   Scattered Clouds
6:35 PM 55.4 °F 53.6 °F 94% 30.28 in 5.0 mi Calm Calm - N/A   Mostly Cloudy
6:55 PM 55.4 °F 53.6 °F 94% 30.29 in 5.0 mi NNW 5.8 mph - N/A   Mostly Cloudy
7:15 PM 57.2 °F 53.6 °F 88% 30.29 in 5.0 mi NNW 5.8 mph - N/A   Mostly Cloudy
7:35 PM 57.2 °F 53.6 °F 88% 30.29 in 5.0 mi NW 6.9 mph - N/A   Mostly Cloudy
7:55 PM 57.2 °F 53.6 °F 88% 30.29 in 5.0 mi NNW 9.2 mph - N/A   Mostly Cloudy
8:15 PM 55.4 °F 53.6 °F 94% 30.29 in 5.0 mi NNW 9.2 mph - N/A   Scattered Clouds
8:55 PM 55.4 °F 51.8 °F 88% 30.30 in 5.0 mi NNW 8.1 mph - N/A   Clear
9:15 PM 53.6 °F 51.8 °F 94% 30.30 in 5.0 mi NNW 8.1 mph - N/A   Clear
9:35 PM 53.6 °F 51.8 °F 94% 30.31 in 5.0 mi NNW 9.2 mph - N/A   Clear
9:55 PM 53.6 °F 51.8 °F 94% 30.31 in 5.0 mi North 5.8 mph - N/A   Clear
10:15 PM 53.6 °F 51.8 °F 94% 30.31 in 5.0 mi NNW 6.9 mph - N/A   Partly Cloudy
10:35 PM 53.6 °F 51.8 °F 94% 30.31 in 5.0 mi NNW 6.9 mph - N/A   Partly Cloudy
10:55 PM 53.6 °F 51.8 °F 94% 30.30 in 5.0 mi NNW 9.2 mph - N/A   Clear
11:15 PM 53.6 °F 51.8 °F 94% 30.30 in 5.0 mi North 10.4 mph - N/A   Clear
11:35 PM 53.6 °F 51.8 °F 94% 30.30 in 5.0 mi North 10.4 mph - N/A   Clear
11:55 PM 53.6 °F 51.8 °F 94% 30.28 in 5.0 mi NNW 9.2 mph - N/A   Clear